GFSFLT2_2pvu_pres_036.txt.gz
Presure
135 113 125 100 124 124 130 120 146 134 206 154 164 178 127 132 193 178 182 171 195 195 198 191 184 188 182 186 188 199 218 240
139 126 123 135 126 133 142 140 146 114 166 157 162 179 191 180 199 193 197 190 182 185 183 190 190 182 189 188 191 215 230 240
140 134 153 141 134 184 134 192 152 181 169 179 137 179 197 184 185 193 198 196 185 190 188 200 184 186 191 226 207 221 242 232
157 116 133 178 138 131 153 142 150 180 178 178 185 193 117 174 126 206 186 184 201 185 187 186 197 187 219 201 239 224 271 220
184 139 138 134 135 138 137 153 179 186 182 190 199 119 199 186 201 190 183 191 185 185 187 192 219 206 207 236 213 245 234 255
131 133 133 134 189 157 156 177 195 191 150 134 189 196 183 208 187 188 192 185 182 191 207 212 208 244 251 239 249 225 234 220
179 136 140 168 199 163 191 156 193 194 189 200 183 189 191 187 190 190 194 193 209 212 204 225 233 223 248 220 222 234 206 211
128 120 175 197 163 193 192 192 194 201 189 191 191 192 193 197 187 200 215 217 204 239 228 240 248 232 218 220 218 208 239 214
136 196 196 197 200 201 192 187 188 187 193 190 193 193 189 189 217 205 208 241 215 250 218 224 228 213 210 214 206 209 205 204
213 196 205 207 201 202 201 197 196 195 188 191 193 194 219 200 204 223 214 223 218 216 224 212 205 213 208 204 202 196 201 193
219 221 217 213 209 206 202 216 211 211 214 204 201 198 215 225 215 224 226 222 230 216 206 214 208 202 202 205 201 202 205 229
215 212 220 217 219 209 201 200 201 196 203 209 233 218 216 235 236 226 221 214 205 209 205 203 204 204 203 201 221 232 233 220
210 206 198 195 197 196 195 203 209 226 225 209 235 230 222 219 214 204 205 213 207 205 204 213 225 250 248 228 218 210 205 207
201 203 205 196 197 204 217 225 210 215 229 217 215 209 204 201 208 205 207 222 236 264 266 266 254 227 219 213 208 206 202 199
202 201 199 198 207 226 208 222 221 215 210 203 203 206 198 212 218 223 239 240 236 235 224 214 208 207 205 201 198 199 204 203
209 220 226 211 216 226 217 214 204 199 209 211 202 231 217 224 223 221 219 218 217 213 210 202 197 204 200 198 201 211 203 217
209 211 237 224 214 205 197 203 213 195 206 225 233 219 219 224 217 215 210 206 207 203 202 209 204 202 200 200 205 223 216 246
231 217 207 207 202 210 212 211 211 212 209 204 200 199 216 218 228 227 212 204 210 201 205 199 203 205 207 215 224 254 280 277
204 205 207 213 216 207 214 204 199 201 200 210 208 215 217 223 220 217 225 214 206 204 195 207 202 216 228 237 282 267 275 251
207 213 201 212 204 207 200 197 191 194 197 205 210 222 232 232 231 224 209 203 200 207 204 206 222 246 253 278 267 252 251 324

GFSFLT2_2pvu_pres_042.txt.gz
Presure
139 104 113 102 89 95 101 134 96 117 154 125 120 130 136 145 121 170 144 129 150 198 186 188 183 181 117 127 109 189 188 189
141 139 167 151 114 121 144 131 125 141 132 118 138 138 120 131 126 133 135 184 145 181 166 185 193 180 175 181 192 193 182 191
142 142 138 144 124 124 168 125 120 124 114 126 138 125 125 121 133 138 156 139 181 194 194 178 179 180 189 193 194 184 199 187
136 134 125 131 148 140 139 139 134 130 120 139 127 139 142 142 145 192 166 192 178 184 182 187 183 184 191 186 192 195 206 200
112 112 111 121 136 129 143 122 136 167 134 127 140 132 152 133 176 150 185 180 187 187 179 187 196 190 185 189 196 197 195 197
120 118 130 137 124 128 117 137 132 127 172 132 134 131 133 145 180 191 178 186 191 196 194 196 191 183 186 194 203 200 204 238
123 120 130 134 134 121 129 133 162 157 197 167 193 141 153 193 196 199 202 183 187 193 181 183 188 202 192 192 213 225 201 239
130 130 131 129 126 122 128 144 138 165 143 177 170 201 205 201 194 191 195 191 183 185 185 185 189 192 193 224 243 241 234 231
120 145 127 132 127 135 194 137 193 139 200 190 199 187 197 195 184 185 186 186 177 190 196 218 217 201 227 217 199 227 207 218
126 127 124 186 187 132 202 144 201 120 152 196 193 192 175 189 186 192 196 198 193 207 198 192 202 207 227 224 209 238 237 238
124 127 214 150 212 206 192 162 157 201 199 192 189 203 203 180 178 179 191 211 193 186 198 223 227 220 202 225 227 221 218 219
166 218 206 168 207 200 160 192 200 200 199 186 183 184 197 196 199 207 203 189 205 219 234 214 207 211 218 218 236 249 242 243
216 216 211 197 211 216 190 200 203 205 198 200 196 207 198 189 188 195 202 204 240 207 224 197 219 210 210 204 223 244 237 232
212 228 221 223 213 206 209 207 203 211 215 207 197 202 204 200 198 201 227 213 223 198 200 209 209 205 215 245 242 223 216 210
216 206 217 211 212 202 194 198 208 199 198 194 195 198 196 222 226 228 216 205 202 213 207 205 210 203 209 249 221 208 201 203
214 206 203 213 217 213 207 200 197 200 201 199 199 212 231 224 206 210 192 213 202 210 204 195 203 209 224 224 205 211 211 203
210 219 213 212 206 206 205 204 208 238 233 245 220 205 201 203 216 212 205 209 204 198 198 199 207 211 214 232 214 208 204 213
220 212 216 214 219 218 212 217 229 218 204 204 200 197 202 211 210 204 201 196 201 194 193 205 207 212 210 240 225 209 214 221
211 206 210 210 227 229 215 199 195 202 195 195 200 207 213 209 203 199 199 197 191 197 200 199 215 223 231 217 213 217 219 232
218 228 220 214 206 196 197 196 194 195 205 219 205 205 215 207 200 199 192 191 199 201 202 214 223 234 214 216 221 216 244 263

GFSFLT2_2pvu_pres_045.txt.gz
Presure
135 131 137 131 142 140 146 130 139 150 104 131 138 122 118 132 122 120 144 134 146 129 136 137 141 145 181 190 199 188 193 179
138 75 133 119 141 137 121 127 152 127 114 137 118 129 128 124 122 127 127 159 133 219 202 187 188 173 193 189 180 185 177 185
125 129 140 133 125 117 127 122 130 128 125 125 151 110 124 128 127 133 171 159 195 219 144 196 194 197 185 183 189 190 190 190
136 137 125 125 144 130 107 106 120 117 120 123 125 126 119 133 137 203 217 135 168 174 155 198 188 192 195 197 193 186 183 186
136 116 116 133 133 124 120 117 123 141 129 124 118 131 172 184 134 202 187 198 181 202 186 192 207 196 203 201 188 185 184 188
139 125 121 121 124 119 119 128 121 132 126 118 128 142 151 135 176 202 205 180 195 211 184 197 200 188 185 187 182 199 196 200
131 122 123 134 124 118 139 191 127 122 129 127 140 126 188 107 157 158 147 196 200 197 202 175 189 196 185 198 189 194 215 215
129 117 122 131 120 140 138 120 127 122 153 137 167 194 200 204 201 173 196 197 191 184 191 200 199 182 184 194 202 194 197 207
120 118 141 140 131 119 123 131 125 133 136 208 187 208 206 190 200 191 190 181 196 189 186 182 185 192 195 204 207 204 194 208
120 117 106 138 115 118 129 122 182 189 191 216 205 206 183 213 194 193 184 192 188 189 183 183 199 214 206 194 205 223 202 206
124 122 121 119 116 124 135 175 134 201 163 205 214 194 193 198 190 184 185 190 201 195 184 212 192 198 199 208 209 220 192 217
120 118 120 224 125 205 226 218 219 210 207 196 204 201 110 188 195 186 187 183 183 205 196 195 191 196 226 208 208 202 210 213
123 123 222 218 135 127 205 207 202 197 211 195 192 182 189 201 197 196 200 210 196 191 194 190 215 212 206 197 207 205 212 205
126 199 193 202 219 218 213 212 213 201 208 206 206 194 192 195 205 196 197 198 192 191 214 213 196 200 209 212 207 202 202 200
206 165 210 170 211 219 210 210 227 213 208 213 219 211 202 205 202 197 194 210 219 204 188 201 215 207 211 205 199 191 199 200
204 208 204 203 202 211 224 215 209 204 207 204 200 198 195 199 214 226 208 208 202 203 210 216 214 208 205 203 193 199 201 194
215 213 225 212 212 203 198 211 213 210 209 208 216 222 205 216 212 187 201 203 224 215 210 222 220 206 200 194 195 201 202 205
211 221 217 219 218 217 215 214 220 214 211 213 218 206 195 190 202 207 226 209 208 213 208 204 199 198 194 196 196 199 203 216
211 213 209 205 203 216 204 219 220 218 207 204 202 199 197 208 210 205 205 206 205 206 209 211 208 204 203 197 206 210 230 222
208 189 191 197 213 219 208 207 202 202 202 196 192 193 188 198 202 202 198 213 212 206 203 201 198 200 204 208 244 231 216 224

GFSFLT2_2pvu_pres_048.txt.gz
Presure
142 140 110 140 131 107 137 135 126 103 126 119 133 130 154 130 122 117 120 123 120 117 121 120 137 131 127 219 193 198 216 183
142 120 146 117 131 145 112 141 137 123 122 119 120 108 123 127 127 128 120 119 121 125 121 142 134 225 139 204 144 205 195 195
141 136 114 111 127 125 137 118 116 135 144 115 123 111 124 142 120 117 122 114 128 129 137 127 183 198 202 184 206 204 215 186
124 141 138 129 129 133 120 120 124 140 113 125 128 109 110 119 124 125 113 124 154 129 150 192 164 159 171 206 197 185 187 190
121 121 140 133 142 122 113 127 123 127 119 116 109 140 112 124 118 130 123 126 139 199 193 201 170 173 191 200 188 196 192 203
152 116 132 136 130 129 129 122 116 126 116 111 129 123 118 126 117 132 130 138 207 195 205 111 110 118 193 191 191 195 194 185
140 113 140 126 138 126 121 142 117 137 143 120 141 119 122 126 128 133 207 188 179 206 195 154 205 201 189 197 202 194 219 198
140 130 121 125 130 134 117 118 133 128 133 116 139 124 127 137 132 156 208 128 176 212 209 191 199 195 193 192 196 195 200 196
120 143 135 125 125 122 104 124 124 122 129 118 118 123 213 207 182 199 188 197 195 200 113 195 196 191 186 188 193 212 205 203
117 119 126 121 119 120 121 122 118 120 118 120 189 168 184 211 206 212 199 196 190 204 195 188 197 197 204 203 207 186 192 194
122 117 118 123 125 119 121 123 120 118 122 204 152 184 190 195 199 202 198 198 209 195 193 196 199 199 200 205 192 193 220 215
123 144 116 117 118 125 120 125 126 126 188 203 190 204 210 214 207 211 204 206 201 202 194 193 193 215 201 194 217 210 195 207
124 121 120 117 131 123 127 136 206 212 199 209 204 212 213 192 199 195 191 191 195 196 209 225 200 190 219 213 206 202 204 215
113 117 122 123 156 150 226 127 207 211 203 210 201 204 194 191 190 195 220 208 215 198 194 222 216 202 208 202 214 216 210 205
125 118 119 159 130 181 187 200 176 207 206 195 200 214 239 213 216 198 200 200 203 225 210 211 205 192 215 209 203 201 207 216
130 125 192 204 204 204 174 212 211 199 209 204 209 196 194 200 199 207 215 207 210 207 194 199 207 203 205 205 214 220 215 201
220 212 202 196 210 216 208 201 199 207 208 205 205 206 213 205 209 213 211 196 202 205 204 192 209 210 224 216 192 199 202 204
224 217 221 216 206 210 212 212 214 218 216 221 201 199 215 209 207 204 204 201 197 194 201 210 213 209 195 198 200 200 206 206
215 218 216 211 210 209 211 213 200 208 195 218 212 204 207 204 202 196 194 193 195 203 209 206 201 202 198 195 205 209 214 237
214 213 222 215 214 207 201 202 200 225 214 208 203 209 196 198 198 195 196 202 211 208 207 202 192 195 205 206 220 224 238 231